[[{"header":{"parameterUnit":"m.s-1","parameterCategory":1,"la1":30.2991,"la2":30.254,"lo1":-89.0895,"lo2":-89.0444,"dy":0.0017,"dx":0.0017,"nx":28,"ny":28,"refTime":"2024-02-15T03:00:00:Z","depth":0,"parameterNumber":2,"parameterNumberName":"U-component_of_WINDS"},"data":[0,0,0,0,0,0,0,0,0,0,0,0,0,0,0,0,0,0,0,0,0,0,0,0,0,0,0,0,0,0,0,0,0,0,0,0,0,0,0,0,0,0,0,0,0,0,0,0,0,0,0,0,0,0,0,0,0,0,0.1862,0.1862,0,0.1843,0.1843,0.1843,0.1844,0.1844,0.1845,0.1845,0.1823,0.1823,0.1822,0,0,0,0,0,0,0,0,0,0,0,0,0,0.1897,0.1896,0.1862,0.1862,0.1862,0.1843,0.1843,0.1843,0.1844,0.1844,0.1845,0.1845,0.1824,0.1823,0.1822,0,0,0,0,0,0,0,0,0,0,0,0,0,0.188,0.1896,0.1862,0.186,0.186,0.1843,0.1843,0.1843,0.1844,0.1844,0.1845,0.1845,0.1824,0.1823,0.1822,0.1805,0,0,0.1818,0.1817,0,0,0,0,0,0,0,0,0.1881,0.1879,0.1861,0.186,0.186,0.1847,0.1847,0.183,0.1844,0.185,0.1845,0.1845,0.1831,0.1829,0.1824,0.1804,0.1804,0.1818,0.1817,0.1816,0.1816,0,0,0,0,0,0,0,0.1882,0.188,0.1855,0.186,0.186,0.1859,0.1857,0.1844,0.1838,0.1849,0.1849,0.1847,0.183,0.1826,0.1824,0.1803,0.1818,0.1817,0.1816,0.1815,0.1768,0.1767,0,0,0,0,0,0,0.1884,0.1881,0.1855,0.1854,0.1872,0.1858,0.1856,0.185,0.1838,0.1837,0.1847,0.1847,0.1827,0.1825,0.1823,0.1802,0.1816,0.1815,0.1814,0.1768,0.1768,0.1767,0,0,0,0,0,0,0.1885,0.1882,0.1856,0.1867,0.1864,0.1857,0.1851,0.185,0.1845,0.1836,0.1835,0.1843,0.1828,0.1825,0.181,0.1802,0.1815,0.1814,0.1769,0.1768,0.1767,0.1761,0,0,0,0,0,0,0.1886,0.1882,0.1877,0.1867,0.1864,0.1844,0.185,0.1849,0.1843,0.1843,0.1833,0.1831,0.1828,0.1812,0.1808,0.18,0.1813,0.177,0.1769,0.1768,0.1762,0.1761,0.1759,0,0,0,0,0,0.1887,0.1876,0.1876,0.1873,0.1857,0.1843,0.1841,0.1838,0.1842,0.1836,0.1831,0.1831,0.1803,0.181,0.1806,0.1798,0.177,0.1769,0.1768,0.1763,0.1761,0.1759,0,0,0,0,0,0,0.1883,0.1874,0.1875,0.186,0.1853,0.1844,0.1836,0.1836,0.1827,0.1827,0.1823,0.1821,0.1805,0.18,0.1808,0.1781,0.1787,0.1785,0.1785,0.1783,0.1781,0.1782,0.1811,0,0,0,0,0,0.1881,0.1872,0.1864,0.1852,0.1848,0.1842,0.1837,0.1835,0.1827,0.1823,0.1817,0.1808,0.1797,0.179,0.1779,0.1762,0.1759,0.1754,0.1752,0.1751,0.1749,0.1738,0.1736,0.1763,0.1763,0.1763,0,0,0.1876,0.187,0.1864,0.1851,0.1845,0.1834,0.184,0.1829,0.1821,0.1821,0.1806,0.1801,0.1791,0.1774,0.1767,0.177,0.1741,0.175,0.1749,0.1747,0.1737,0.1734,0.1732,0.1762,0.1763,0.1763,0,0,0.186,0.1855,0.1844,0.1838,0.1829,0.1825,0.1822,0.1813,0.181,0.1795,0.1795,0.1785,0.1767,0.1759,0.1753,0.1734,0.1734,0.1731,0.1722,0.1711,0.1709,0.1707,0.1699,0.1697,0.1729,0.1729,0.1729,0,0.1855,0.184,0.1838,0.1827,0.182,0.1821,0.1809,0.1803,0.179,0.1786,0.1789,0.1765,0.1759,0.174,0.1735,0.1731,0.1726,0.1732,0.171,0.1708,0.1706,0.1698,0.1695,0.1729,0.1729,0.1729,0.1729,0,0.1832,0.1822,0.1814,0.1802,0.1795,0.1783,0.1779,0.1772,0.1771,0.1766,0.1751,0.1743,0.173,0.1726,0.1725,0.1706,0.1708,0.1711,0.1717,0.1703,0.1696,0.1693,0.1728,0.1728,0.1728,0.1728,0,0,0.1814,0.1801,0.1798,0.1793,0.1782,0.1774,0.1762,0.175,0.1743,0.1735,0.1724,0.1708,0.171,0.1703,0.1701,0.1692,0.1676,0.1696,0.1695,0.1691,0.1654,0.1651,0.1648,0.1676,0.1676,0.1675,0.1654,0,0.1796,0.1776,0.1774,0.1755,0.1744,0.1745,0.1734,0.1726,0.1722,0.1712,0.1707,0.1695,0.17,0.1695,0.1686,0.168,0.1668,0.1682,0.1665,0.1664,0.1666,0.1644,0.1641,0.1621,0.1651,0.1651,0.1651,0,0.1773,0.1764,0.1745,0.1735,0.1731,0.1721,0.171,0.1701,0.1691,0.1689,0.168,0.1679,0.1666,0.1673,0.1653,0.1662,0.1655,0.1651,0.165,0.1648,0.1656,0.1639,0.1615,0.1612,0.1646,0.1647,0.1647,0,0.176,0.1743,0.1729,0.1724,0.1713,0.1706,0.1701,0.1692,0.1685,0.1675,0.167,0.1658,0.1652,0.1642,0.1637,0.1643,0.1617,0.1625,0.1614,0.1614,0.1607,0.1607,0.158,0.1605,0.1605,0.1605,0.1605,0,0.174,0.1728,0.1723,0.1714,0.1699,0.1697,0.1682,0.1677,0.1669,0.1659,0.1659,0.1648,0.1643,0.1632,0.1628,0.1612,0.1609,0.1605,0.1604,0.1605,0.1605,0.1599,0.16,0.1604,0.1604,0.1604,0.1605,0,0.1723,0.1719,0.1703,0.1694,0.1692,0.1681,0.1673,0.1664,0.166,0.1646,0.1642,0.1636,0.1622,0.1617,0.16,0.1598,0.1578,0.1579,0.1581,0.1581,0.157,0.157,0.1537,0.1531,0.1561,0.1561,0.156,0,0.171,0.17,0.169,0.1683,0.1678,0.1667,0.166,0.1657,0.1649,0.1637,0.1629,0.1616,0.1605,0.1583,0.1576,0.1563,0.1563,0.1552,0.156,0.1561,0.1561,0.1561,0.1559,0.155,0.1549,0.1549,0.1549,0,0.1686,0.1685,0.1675,0.1664,0.1656,0.1647,0.1638,0.1632,0.1627,0.1619,0.1605,0.1597,0.158,0.1566,0.1553,0.1547,0.1546,0.1546,0.1543,0.1542,0.1544,0.1541,0.1576,0.1547,0.1547,0.1547,0.1547,0.1547,0.167,0.1661,0.1652,0.1641,0.1634,0.1626,0.1616,0.1611,0.16,0.1587,0.1586,0.1571,0.156,0.1543,0.1536,0.1523,0.1526,0.1521,0.152,0.1518,0.1517,0.1547,0.1521,0.1521,0.1521,0.1521,0.1521,0,0.1645,0.164,0.1629,0.1617,0.1608,0.161,0.16,0.1592,0.1579,0.157,0.156,0.1544,0.153,0.1522,0.1508,0.15,0.1499,0.1496,0.1496,0.1494,0.1516,0.152,0.1497,0.1497,0.1497,0.1497,0.1497,0.1497,0.1631,0.1616,0.1614,0.1594,0.1589,0.1575,0.1569,0.1561,0.1554,0.1536,0.1525,0.152,0.1511,0.1497,0.1484,0.1482,0.1476,0.1473,0.147,0.149,0.1493,0.1495,0.1499,0.1472,0.1472,0.145,0.1449,0.1449]},{"header":{"parameterUnit":"m.s-1","parameterCategory":1,"la1":30.2991,"la2":30.254,"lo1":-89.0895,"lo2":-89.0444,"dy":0.0017,"dx":0.0017,"nx":28,"ny":28,"refTime":"2024-02-15T03:00:00:Z","depth":0,"parameterNumber":3,"parameterNumberName":"V-component_of_WINDS"},"data":[0,0,0,0,0,0,0,0,0,0,0,0,0,0,0,0,0,0,0,0,0,0,0,0,0,0,0,0,0,0,0,0,0,0,0,0,0,0,0,0,0,0,0,0,0,0,0,0,0,0,0,0,0,0,0,0,0,0,2.2747,2.2748,0,2.2823,2.2823,2.2824,2.2832,2.2832,2.2831,2.283,2.2904,2.2907,2.2909,0,0,0,0,0,0,0,0,0,0,0,0,0,2.2606,2.2608,2.2747,2.2748,2.2749,2.2822,2.2823,2.2824,2.2832,2.2832,2.2831,2.283,2.2903,2.2907,2.291,0,0,0,0,0,0,0,0,0,0,0,0,0,2.2672,2.2609,2.2747,2.2762,2.2764,2.2822,2.2823,2.2825,2.2833,2.2832,2.283,2.2829,2.2902,2.2906,2.291,2.2958,0,0,2.2922,2.2924,0,0,0,0,0,0,0,0,2.2669,2.2678,2.2759,2.2761,2.2763,2.2817,2.2801,2.2869,2.2833,2.2806,2.283,2.2829,2.2876,2.2882,2.2899,2.2961,2.2964,2.2923,2.2925,2.2927,2.2928,0,0,0,0,0,0,0,2.2664,2.2674,2.2777,2.276,2.2763,2.2763,2.2772,2.2814,2.2846,2.2809,2.2809,2.2818,2.2877,2.2895,2.29,2.2966,2.2923,2.2926,2.2929,2.293,2.3069,2.307,0,0,0,0,0,0,2.2657,2.2671,2.2774,2.2779,2.2712,2.2767,2.2776,2.2801,2.2846,2.2852,2.2819,2.2819,2.2888,2.2896,2.2903,2.296,2.2927,2.2931,2.2933,2.3068,2.3069,2.3071,0,0,0,0,0,0,2.2654,2.2666,2.2771,2.2725,2.2738,2.2771,2.2798,2.2803,2.2821,2.2854,2.286,2.2832,2.2888,2.2897,2.2944,2.2963,2.2933,2.2936,2.3066,2.3068,2.307,2.3076,0,0,0,0,0,0,2.265,2.2665,2.2685,2.2725,2.2741,2.2812,2.2799,2.2805,2.2828,2.2828,2.2867,2.2873,2.2888,2.2938,2.2948,2.2968,2.2939,2.3065,2.3067,2.3069,2.3074,2.3078,2.3081,0,0,0,0,0,2.2645,2.2683,2.2686,2.2698,2.2766,2.2813,2.2822,2.2839,2.283,2.2849,2.287,2.2871,2.296,2.2943,2.2954,2.2976,2.3063,2.3066,2.3069,2.3073,2.3077,2.3081,0,0,0,0,0,0,2.2643,2.2689,2.2692,2.2745,2.2775,2.2815,2.2839,2.2844,2.2877,2.2875,2.2894,2.2903,2.2948,2.2967,2.2947,2.3023,2.301,2.3016,2.3009,2.3014,2.3017,2.3011,2.2943,0,0,0,0,0,2.2649,2.2684,2.2722,2.2765,2.278,2.2807,2.2828,2.2839,2.2871,2.2883,2.2908,2.2938,2.2972,2.2994,2.3028,2.3077,2.3085,2.3098,2.3101,2.3104,2.3108,2.3134,2.3139,2.308,2.308,2.308,0,0,2.2661,2.269,2.2711,2.2765,2.279,2.2825,2.2818,2.2855,2.2881,2.2889,2.2934,2.2953,2.2987,2.3035,2.3058,2.3052,2.3126,2.3107,2.3109,2.3112,2.3137,2.3143,2.3148,2.3082,2.3082,2.3081,0,0,2.27,2.2727,2.2765,2.279,2.2828,2.2845,2.2854,2.2893,2.2906,2.2952,2.2958,2.2988,2.3048,2.3071,2.3091,2.3139,2.3141,2.3149,2.3166,2.3191,2.3196,2.32,2.3216,2.3221,2.3153,2.3153,2.3153,0,2.271,2.2765,2.2784,2.2821,2.2844,2.2853,2.289,2.2913,2.296,2.2974,2.2968,2.3041,2.3065,2.3118,2.313,2.3146,2.3155,2.3144,2.3194,2.3199,2.3203,2.3217,2.3223,2.3154,2.3154,2.3154,2.3154,0,2.2774,2.2811,2.2837,2.2882,2.2908,2.2945,2.2968,2.2992,2.3,2.3018,2.3063,2.3093,2.3131,2.3145,2.3153,2.3198,2.3194,2.319,2.3178,2.3209,2.3223,2.3229,2.3155,2.3154,2.3154,2.3154,0,0,2.2814,2.2869,2.2878,2.2898,2.294,2.2969,2.3006,2.3045,2.3063,2.3095,2.3125,2.3174,2.3172,2.3194,2.3205,2.3227,2.3261,2.3221,2.3222,2.3226,2.331,2.3311,2.3318,2.3263,2.3264,2.3265,2.3307,0,2.2858,2.2925,2.2943,2.2999,2.3033,2.3041,2.3073,2.3101,2.3119,2.3149,2.3168,2.3202,2.3196,2.3209,2.3232,2.3252,2.3278,2.3249,2.3289,2.3291,2.3279,2.3326,2.3327,2.3366,2.3313,2.3314,2.3314,0,2.2918,2.2951,2.301,2.3047,2.3062,2.309,2.3126,2.3156,2.3187,2.3198,2.3223,2.3231,2.3268,2.3254,2.3305,2.3285,2.3302,2.3314,2.3316,2.332,2.3304,2.3329,2.3379,2.3384,2.3324,2.3323,2.3322,0,2.2939,2.2999,2.3042,2.3059,2.3103,2.3122,2.3141,2.3172,2.3194,2.3225,2.3239,2.3274,2.3292,2.3318,2.3335,2.3324,2.3384,2.3372,2.3392,2.3392,2.3403,2.3402,2.3455,2.3417,2.3417,2.3417,2.3417,0,2.2985,2.3021,2.3052,2.3078,2.3118,2.3137,2.3176,2.3195,2.3222,2.3251,2.3261,2.3287,2.3309,2.3338,2.3352,2.339,2.3399,2.3408,2.3411,2.3406,2.3405,2.3417,2.3414,2.3418,2.3418,2.3418,2.3417,0,2.3015,2.3038,2.3085,2.3123,2.3133,2.3161,2.3192,2.3217,2.3235,2.3271,2.3281,2.3308,2.3343,2.3363,2.3407,2.3415,2.3458,2.346,2.3447,2.3448,2.3467,2.3465,2.3529,2.3537,2.3494,2.3495,2.3495,0,2.3043,2.307,2.3111,2.3132,2.3151,2.3184,2.3206,2.3226,2.3248,2.3286,2.3306,2.3342,2.3371,2.3426,2.3449,2.3482,2.3484,2.3504,2.3489,2.3483,2.3482,2.348,2.3482,2.3506,2.3507,2.3507,2.3507,0,2.3088,2.3098,2.313,2.3166,2.3192,2.3221,2.325,2.3265,2.329,2.3314,2.335,2.3373,2.3418,2.3452,2.3487,2.3505,2.351,2.3512,2.3518,2.3513,2.3504,2.3508,2.3453,2.351,2.351,2.351,2.351,2.3509,2.3117,2.3141,2.3173,2.3209,2.3232,2.3258,2.3284,2.3304,2.3335,2.3373,2.3383,2.342,2.345,2.3497,2.3516,2.3544,2.3541,2.355,2.3552,2.3554,2.3554,2.3501,2.3551,2.3551,2.3551,2.3551,2.3551,0,2.3161,2.3182,2.3215,2.3254,2.3281,2.3285,2.3316,2.3338,2.3371,2.3399,2.3428,2.3468,2.3502,2.3527,2.3561,2.3578,2.3581,2.3586,2.3585,2.3588,2.3556,2.3547,2.3584,2.3584,2.3584,2.3584,2.3584,2.3584,2.3188,2.3229,2.3242,2.3294,2.3315,2.3352,2.337,2.3393,2.3415,2.3461,2.3489,2.3505,2.3531,2.3567,2.3597,2.3603,2.3614,2.3619,2.3625,2.3594,2.3591,2.3587,2.3579,2.3622,2.3622,2.3655,2.3656,2.3656]}]]